Theta_e
317 319 321 319 318 321 323 323 319 317 318 311 312 314 313 315 316 316 317 317 317 316 315 314 314 313 315 316 317 317 317 317 318 317 318 323 322 323 323 323 324 322 332 338 341 344 344 345 345 345 345 344 344 345 344 344 343 342 340 338 339 340 340 339 338 338 338 338 337 337 337 338 338 338 338 337 337 338 338 337 338 337 337 337 337 336 334 334 331 330 326 323 321 320 320 317 316
319 321 321 319 318 323 323 321 318 313 313 309 311 314 312 314 315 316 316 317 317 315 313 313 314 314 314 315 316 317 317 317 317 317 318 320 319 324 324 323 325 323 332 338 341 344 344 345 345 345 345 344 344 344 344 343 343 342 340 339 339 339 339 339 338 337 337 337 337 336 335 336 337 337 336 336 337 337 336 336 337 337 337 336 335 332 331 331 329 327 324 322 319 315 316 314 312
319 320 320 319 320 323 323 321 316 310 310 308 310 314 313 315 315 316 316 315 315 313 312 313 314 315 315 317 317 317 319 317 316 316 317 320 323 325 323 324 326 324 331 336 341 344 344 345 344 345 344 344 344 343 343 342 342 341 340 339 339 339 338 338 337 336 335 335 337 334 333 335 335 335 335 335 335 335 336 336 336 336 336 334 331 329 329 330 329 328 325 324 320 312 310 309 308
318 319 319 320 323 322 322 319 316 311 309 309 310 314 315 315 315 316 315 314 313 311 313 315 316 315 316 318 318 317 319 318 317 317 319 325 324 323 322 324 325 324 329 335 340 343 344 344 344 344 344 344 343 343 343 342 342 341 340 340 338 338 337 336 336 336 334 334 334 332 332 333 332 334 335 335 334 335 335 336 336 334 333 331 330 330 331 331 329 329 326 324 322 311 305 304 304
318 318 317 321 324 321 322 319 317 313 310 311 310 314 316 315 315 315 314 314 312 312 314 316 317 315 315 317 317 318 319 319 319 317 320 325 322 321 322 323 325 324 327 334 340 343 344 344 344 344 344 343 342 343 343 343 342 341 341 340 338 336 337 336 334 336 335 332 333 333 334 334 333 334 336 335 335 336 336 336 335 334 333 330 330 329 329 328 328 328 325 324 320 308 301 300 301
318 318 317 320 321 319 320 316 314 313 314 316 314 315 316 315 315 313 315 315 313 312 313 315 316 316 316 316 316 318 319 318 319 319 320 324 322 322 323 323 326 324 325 333 338 341 343 343 343 343 343 343 342 343 342 342 342 342 341 340 338 335 336 336 334 337 334 333 335 335 337 336 335 335 335 336 336 336 335 335 335 334 332 329 327 325 325 325 327 327 325 324 316 302 299 300 299
318 320 321 321 320 320 319 314 313 315 315 317 316 316 316 315 313 313 316 315 314 313 313 314 314 315 316 315 315 317 315 315 319 320 319 321 321 322 323 324 325 324 325 330 336 340 342 343 343 343 343 342 341 342 342 342 342 342 341 341 339 335 336 336 334 336 334 334 336 336 337 337 337 336 335 337 336 334 333 334 334 332 329 327 326 324 324 324 326 326 323 321 310 298 299 299 299
318 319 321 323 322 322 320 316 316 317 315 314 315 316 315 315 313 313 316 315 315 314 314 314 314 315 315 313 315 316 315 315 316 317 319 321 321 323 324 324 326 325 325 328 332 337 340 342 341 342 343 342 341 342 342 341 342 342 342 341 340 336 335 336 335 335 334 335 336 336 337 337 337 336 336 337 334 331 330 331 331 330 328 328 327 326 324 323 325 325 321 318 306 297 298 298 299
318 318 321 323 321 320 318 316 317 317 317 315 315 315 315 314 313 314 315 315 314 314 314 314 314 315 315 314 316 318 317 315 315 317 322 323 322 323 324 325 326 326 325 327 330 333 337 339 340 341 342 341 341 341 342 341 341 342 342 341 340 338 335 335 335 334 333 335 337 336 337 337 337 336 337 337 334 332 330 330 331 330 330 329 328 327 325 324 325 324 321 318 308 298 298 298 299
319 318 321 322 318 316 314 315 317 316 316 315 314 314 314 312 312 313 315 315 313 313 313 312 313 316 315 316 316 317 316 317 319 321 323 324 324 323 324 325 326 327 327 326 329 331 335 337 338 340 341 341 341 341 341 341 341 341 342 341 341 339 337 334 334 334 333 335 338 337 337 337 337 337 337 337 334 333 332 331 332 331 330 330 329 327 326 325 325 323 320 317 307 299 298 298 298
318 317 319 319 314 312 312 314 315 316 315 314 314 313 313 311 312 313 314 314 313 313 313 312 314 316 315 315 316 315 315 316 318 321 322 324 324 324 325 325 327 328 329 330 331 332 336 337 337 339 340 340 340 340 340 341 341 341 342 341 341 340 338 335 334 334 333 335 337 336 337 337 337 337 337 337 335 334 332 332 332 331 330 330 329 328 327 325 325 323 321 317 308 300 298 298 298
317 317 318 314 312 313 313 314 315 317 315 314 314 312 311 310 312 313 314 314 313 313 313 314 314 314 315 315 316 314 315 313 314 317 321 324 324 325 326 327 328 329 331 332 333 334 337 338 337 338 339 339 339 340 339 340 340 341 342 341 341 340 339 337 334 333 332 334 336 336 337 336 337 337 337 336 335 335 333 332 332 331 330 330 330 329 327 325 325 323 321 319 313 305 299 297 298
319 318 316 313 314 315 314 314 315 317 316 314 314 311 309 310 313 313 313 314 313 314 314 313 312 313 315 315 315 314 315 311 311 314 318 323 325 325 328 329 330 330 331 332 334 335 336 338 338 339 338 338 338 339 339 340 340 340 341 341 341 340 339 338 335 333 331 332 334 335 337 336 337 337 337 336 335 335 333 332 332 332 331 330 329 329 328 325 324 323 321 320 317 311 303 298 297
319 317 316 315 315 316 314 314 315 316 315 314 313 311 310 311 312 311 313 314 314 314 312 312 312 314 314 314 315 314 313 309 310 312 314 321 325 325 327 328 330 330 331 332 333 335 335 336 338 338 338 338 338 339 339 339 340 339 340 340 340 340 339 338 336 334 331 330 331 333 335 336 337 337 336 336 335 335 334 333 332 332 331 330 329 329 327 325 324 322 320 320 319 317 310 301 297
317 316 318 316 315 315 315 315 316 316 314 314 311 309 311 311 310 311 312 314 314 312 310 311 311 313 314 314 314 312 310 307 308 311 314 320 323 325 326 327 329 329 331 333 334 334 334 335 337 338 338 338 339 339 339 338 339 338 339 340 340 339 340 339 337 335 332 330 330 331 334 335 336 336 336 336 335 335 334 333 333 332 331 330 329 328 326 324 324 322 320 320 319 319 316 308 300
315 316 317 314 313 314 314 316 316 316 314 313 310 308 312 312 309 311 311 311 313 312 310 312 311 312 314 312 311 308 306 307 309 313 317 320 322 325 326 325 327 327 329 331 333 334 334 335 336 337 337 337 338 339 339 338 338 338 338 338 339 339 339 339 337 336 333 331 331 330 331 333 334 335 335 336 335 335 334 333 333 332 331 329 329 328 326 324 324 323 321 321 320 319 318 315 308
314 316 315 312 312 312 313 315 316 315 314 313 311 310 314 313 311 310 309 308 311 312 311 312 311 311 311 309 307 306 306 307 310 314 316 318 319 321 323 321 322 325 325 327 330 332 334 336 335 336 337 337 337 338 338 339 338 338 339 338 337 338 338 339 338 337 335 333 332 331 330 331 333 333 334 335 335 335 334 333 332 331 330 329 328 327 325 324 324 323 322 321 320 318 318 318 315
315 317 314 311 312 312 313 315 314 314 314 314 312 311 313 314 313 311 310 310 311 312 312 312 311 310 309 308 307 307 308 308 310 312 312 313 314 315 316 315 315 317 318 321 325 328 331 333 335 335 336 336 336 337 337 338 338 338 341 339 337 337 337 338 338 337 336 335 334 333 331 331 332 333 333 334 335 335 334 333 332 331 330 329 328 327 325 325 324 323 323 322 321 319 318 318 318
316 316 314 312 314 313 312 314 313 313 314 314 313 310 311 313 312 311 312 313 313 313 314 313 312 310 309 309 309 308 308 309 310 310 311 311 311 312 312 312 312 312 312 314 317 322 326 329 332 334 336 336 335 336 336 337 337 337 339 338 338 337 337 337 337 338 337 336 335 334 332 332 332 333 333 333 333 334 334 333 332 331 331 329 328 328 326 325 324 324 324 323 322 320 318 318 318
316 316 314 314 314 312 311 312 313 312 312 314 313 309 310 312 311 311 312 313 314 313 313 313 312 311 310 310 309 309 309 309 309 310 310 310 310 310 311 311 311 311 311 311 311 314 319 324 328 331 334 336 335 335 336 337 336 337 337 337 339 339 338 337 337 338 338 337 336 335 333 333 332 333 333 332 331 333 333 332 332 332 331 330 329 329 327 326 324 325 324 323 323 322 319 318 318
315 315 314 315 313 313 313 311 312 311 310 312 312 310 311 311 309 310 311 313 315 313 311 310 310 310 309 309 309 309 309 309 309 309 309 309 309 309 309 310 310 310 311 313 313 311 312 317 323 327 331 334 335 335 335 336 336 336 337 336 338 340 339 336 335 336 337 337 335 335 334 334 333 333 333 331 331 332 332 332 332 331 330 329 329 329 328 326 325 325 325 324 323 322 320 319 318
315 314 314 314 312 314 314 311 312 310 309 311 311 311 312 310 309 310 311 313 313 310 308 308 308 308 308 308 308 309 309 308 308 308 308 308 309 309 309 309 309 310 312 313 314 313 310 311 316 323 328 331 334 335 334 336 336 334 334 335 336 337 336 334 335 336 336 337 335 333 333 333 333 334 333 332 332 331 331 332 332 331 330 329 329 329 328 327 326 326 325 324 324 322 321 319 318
315 314 312 313 313 314 314 311 312 310 309 311 311 311 310 310 311 309 310 311 309 306 307 307 307 307 307 307 308 307 307 308 307 307 307 307 308 308 308 308 309 309 311 313 313 314 312 309 311 317 326 330 331 333 334 334 335 334 332 333 335 335 334 334 336 335 335 336 335 333 333 333 333 333 334 333 332 331 331 331 330 329 329 329 329 329 328 327 327 326 325 325 323 322 322 321 320
314 314 313 312 311 313 313 311 311 309 310 311 309 309 309 312 311 308 309 308 305 306 308 307 307 307 307 307 307 307 307 307 306 306 306 306 306 307 307 308 308 309 310 313 314 314 314 311 309 313 323 328 330 332 333 334 334 334 332 331 332 332 333 334 334 334 333 334 335 334 334 335 333 332 333 333 332 332 331 330 329 329 329 329 329 328 328 328 327 326 326 325 323 322 323 322 321
314 314 313 311 310 312 312 309 309 308 309 309 307 309 310 311 310 309 308 306 304 307 307 307 307 307 306 305 305 306 306 306 306 306 306 306 305 306 307 307 307 308 310 313 314 314 315 313 309 311 320 327 329 330 332 333 334 335 333 333 334 333 333 334 333 333 333 333 333 333 333 335 334 332 332 333 332 332 332 330 330 331 330 330 330 329 329 328 327 327 326 325 323 323 324 322 321
312 313 312 311 311 311 310 309 309 308 308 307 309 312 311 307 308 309 307 304 305 307 306 306 306 306 305 304 305 306 305 305 305 305 305 305 305 306 307 306 307 308 311 314 315 316 317 316 314 314 320 327 328 330 332 333 333 334 333 332 333 333 333 333 332 333 332 331 330 330 332 334 335 333 332 333 332 333 333 331 330 331 330 330 330 329 329 328 328 327 326 325 324 324 324 322 321
311 311 311 311 311 310 309 310 309 308 308 307 310 313 310 306 308 311 307 303 306 307 306 305 305 305 303 303 304 305 305 304 304 304 305 305 305 305 305 305 307 309 312 315 316 317 318 318 318 317 321 326 328 329 331 332 332 331 331 331 332 332 332 331 331 332 332 331 331 330 331 332 333 334 333 333 333 333 333 331 331 331 330 330 330 329 328 328 327 326 326 325 324 324 323 323 322
309 309 311 311 311 311 310 310 309 308 309 307 309 311 309 308 310 311 306 303 306 308 307 305 305 305 303 303 304 304 304 303 303 304 304 304 304 304 304 303 305 310 312 314 316 318 320 319 320 320 322 327 328 328 329 332 332 330 332 333 331 332 331 329 330 330 329 331 332 331 331 331 331 332 332 332 332 332 330 330 331 330 330 329 329 327 327 326 326 325 325 324 323 323 322 322 322
309 309 313 314 313 314 311 309 308 309 310 306 308 311 311 311 310 309 306 305 307 308 307 306 305 304 304 303 303 304 304 303 303 303 303 303 302 302 303 302 303 308 312 315 317 319 321 321 322 323 325 328 328 328 328 330 331 330 332 330 328 329 329 328 328 328 328 329 330 329 329 330 330 330 330 331 331 330 328 328 329 329 327 327 327 326 325 325 325 325 324 323 323 322 321 321 321
310 310 312 314 315 315 311 309 308 310 310 305 308 314 313 311 308 309 307 305 307 309 307 306 305 304 303 303 303 303 303 303 302 302 302 301 302 302 302 302 303 307 312 316 318 319 322 323 324 326 327 327 327 329 329 328 328 328 328 327 326 326 326 327 327 328 328 328 328 328 327 328 328 328 328 329 329 328 327 327 327 327 326 325 325 324 324 324 324 324 323 322 322 321 320 319 320
312 311 312 314 316 315 312 309 310 312 309 305 310 315 315 311 308 308 306 304 307 309 307 305 304 304 303 303 303 303 303 303 302 301 301 300 301 301 301 302 305 309 312 316 318 320 322 322 324 326 326 327 327 328 329 328 328 327 325 324 324 325 324 325 325 326 326 326 326 326 326 327 327 326 327 327 327 326 326 326 326 326 325 325 324 324 323 322 323 323 322 321 320 320 320 319 319
312 313 315 316 314 315 315 309 308 312 309 307 312 315 316 312 308 308 305 306 309 308 306 305 304 303 303 303 302 303 303 302 302 300 300 300 300 300 300 301 305 309 312 315 318 320 321 322 322 323 324 324 325 325 325 325 326 325 324 323 323 323 323 323 322 322 323 324 324 324 325 325 324 324 325 326 325 324 324 325 324 324 324 324 324 323 322 322 321 321 321 320 319 319 318 318 318
313 314 316 317 315 316 315 310 307 310 310 310 312 314 317 312 307 307 305 306 308 307 306 304 303 303 302 303 302 302 303 302 302 300 299 299 299 299 300 300 303 308 312 315 319 319 321 322 321 322 324 322 322 322 322 323 323 322 322 321 321 321 320 320 319 320 320 321 322 322 322 321 321 321 321 322 322 321 321 322 321 321 321 321 321 320 320 319 319 318 318 318 317 317 316 316 315
315 315 315 316 315 314 314 313 310 309 311 313 312 313 316 312 307 307 306 306 308 307 306 304 303 303 302 302 302 302 302 301 300 300 299 299 299 299 299 300 303 308 311 314 317 319 320 320 320 321 322 322 321 320 321 321 320 320 319 318 318 317 317 316 316 317 317 317 317 318 318 317 317 317 317 318 318 317 316 316 316 316 316 316 317 317 316 316 315 315 315 315 314 313 312 312 311
317 316 316 315 314 313 314 314 311 310 312 314 313 313 315 314 309 307 306 305 307 307 305 304 303 302 302 302 302 301 301 300 299 299 298 298 298 298 299 301 303 307 309 312 315 317 319 319 319 320 321 321 320 319 319 319 318 318 316 316 316 314 313 313 313 314 313 313 313 314 314 314 314 314 314 314 314 314 313 312 311 311 312 312 312 312 312 311 311 311 311 311 311 310 308 307 307
316 316 316 316 315 314 314 314 310 310 313 314 314 314 315 316 313 308 306 305 306 305 304 304 303 302 302 301 301 301 300 299 299 298 297 297 298 298 299 299 301 304 307 309 312 315 317 317 318 319 318 318 318 317 317 317 316 315 313 313 312 309 308 309 308 308 307 307 307 308 309 309 309 309 310 310 310 310 309 308 308 307 308 308 308 307 307 306 306 307 307 307 308 308 305 304 305
314 315 316 315 315 315 315 314 309 308 312 314 314 314 314 315 313 308 306 306 306 305 304 304 303 302 302 301 301 300 299 299 298 298 297 297 297 297 298 299 300 302 304 307 310 312 312 313 315 314 313 315 316 315 314 313 312 311 310 307 305 303 303 304 303 303 302 302 303 303 303 303 303 304 304 304 304 304 304 304 303 303 303 303 303 302 302 302 302 303 305 305 305 306 303 302 303
313 314 315 315 316 315 314 312 309 308 311 314 313 312 314 314 312 307 305 307 306 305 305 303 302 301 301 301 300 300 299 299 299 298 297 297 297 297 297 298 299 300 301 303 306 307 309 312 312 311 311 314 314 313 313 311 308 308 307 303 301 301 301 301 300 300 300 300 301 301 300 300 300 301 301 301 301 301 301 300 300 300 300 300 300 300 299 299 299 300 302 303 304 303 302 301 301
313 313 314 316 316 315 314 312 309 308 311 315 313 312 315 313 309 306 305 305 304 302 302 302 301 301 300 300 300 300 299 299 299 298 297 297 297 297 297 297 298 299 300 302 302 303 307 309 309 309 311 313 313 312 312 310 307 307 305 302 301 300 299 299 298 298 299 299 299 299 299 299 299 299 299 300 300 299 299 299 299 299 299 299 299 299 298 298 299 298 299 300 302 302 301 300 299
313 314 315 317 316 316 318 314 310 309 310 313 313 313 315 313 308 305 304 302 302 300 300 300 300 300 300 299 299 299 299 299 298 298 298 297 296 296 296 296 297 298 299 300 301 302 303 304 305 307 309 309 309 309 309 307 305 305 303 301 300 298 296 296 296 296 296 296 296 297 297 297 297 297 297 298 298 298 298 298 298 298 298 298 298 297 297 297 297 297 297 298 299 301 301 300 299
315 314 315 318 316 316 318 315 311 311 310 310 312 315 317 315 311 308 303 301 301 300 300 300 299 299 298 298 298 298 298 298 298 297 297 297 296 296 295 295 295 296 297 298 299 300 300 301 303 305 305 305 305 305 304 303 303 302 300 298 297 295 293 293 292 292 291 292 292 292 292 293 293 293 293 294 294 294 294 295 295 295 295 295 295 294 294 294 295 295 296 296 297 298 300 299 298
318 316 315 316 316 316 315 314 312 315 316 312 312 319 320 315 313 310 305 304 303 301 301 301 300 299 298 299 298 297 297 297 297 296 297 296 296 296 295 295 295 294 295 296 297 299 299 301 302 303 303 302 302 303 302 301 301 299 298 296 294 293 291 290 289 289 288 288 288 288 288 289 289 289 289 289 290 290 290 290 290 290 290 290 290 290 289 289 290 290 291 292 293 295 298 298 297
320 317 315 314 315 315 315 314 314 318 319 312 310 318 320 316 315 311 306 306 304 302 302 301 300 299 299 299 298 298 297 296 296 296 296 296 296 295 295 294 294 293 293 295 296 297 299 300 301 301 302 301 301 301 301 301 300 299 297 295 292 290 289 288 288 288 287 287 287 287 287 287 288 288 288 288 288 288 288 288 288 288 288 287 287 287 287 287 287 287 287 288 289 290 293 295 295
320 316 314 314 314 315 314 314 316 317 317 314 311 315 318 319 317 310 306 307 305 303 303 301 300 300 299 299 298 297 297 296 296 296 296 296 295 295 294 293 293 292 293 294 295 296 298 299 300 300 300 300 300 300 300 299 298 297 295 292 289 288 288 288 287 287 287 287 287 288 288 288 288 288 288 288 288 288 288 288 288 288 288 288 288 288 288 287 287 287 287 287 287 287 289 291 292
318 312 311 312 313 314 314 314 315 314 315 318 316 314 317 320 316 308 306 309 307 305 304 302 301 300 300 299 298 297 296 296 296 296 295 295 294 294 293 293 292 292 292 293 294 295 296 297 298 299 299 298 298 298 298 297 295 294 292 290 288 287 287 287 288 288 288 288 288 288 288 288 288 288 288 288 288 288 288 288 288 288 288 288 288 288 288 288 288 288 288 287 287 288 288 288 290
313 309 310 311 311 312 313 314 315 313 315 321 319 315 317 320 318 312 309 310 310 308 305 303 302 301 300 299 298 297 295 295 295 295 295 294 294 293 292 292 291 291 292 292 293 294 295 295 296 297 296 296 295 295 294 294 293 291 290 289 288 287 288 288 288 289 289 289 289 288 288 288 288 288 288 288 288 288 288 288 288 288 288 287 287 287 287 287 287 287 287 287 287 287 287 287 288
309 310 312 312 311 311 311 312 313 315 318 319 316 315 317 319 319 317 313 311 311 309 305 303 302 301 300 299 298 297 296 295 295 295 294 293 293 292 292 292 291 291 291 291 292 293 293 293 294 294 293 292 292 291 291 291 290 290 289 288 288 288 288 289 289 289 289 289 289 289 289 288 288 288 288 288 288 288 288 288 287 287 287 287 287 287 287 287 287 287 287 287 287 287 287 287 287
309 313 314 315 314 312 313 313 313 319 322 315 309 310 314 318 319 315 312 308 308 308 306 303 302 301 301 299 298 297 296 295 295 295 295 294 293 292 292 292 291 290 290 290 290 291 291 290 291 291 290 289 290 289 289 289 289 289 288 288 289 288 289 289 289 289 289 289 289 289 289 288 288 288 288 288 287 288 288 287 287 287 287 287 287 287 287 287 287 287 287 286 286 286 286 286 286
311 313 314 318 319 316 318 318 315 320 319 311 307 310 313 317 317 313 310 307 306 306 305 304 303 302 301 300 298 297 296 295 294 295 295 295 294 293 293 292 292 291 290 289 289 289 289 289 289 289 288 288 288 288 289 288 288 289 289 289 289 289 289 289 289 289 289 289 289 289 288 288 288 287 287 287 287 287 287 287 287 287 287 287 287 287 287 287 286 286 286 286 285 285 285 285 284
312 314 316 320 321 320 322 319 316 318 315 308 307 310 314 316 315 311 308 306 303 303 303 304 303 302 301 300 298 297 296 295 295 295 295 295 294 294 293 292 292 291 289 288 288 288 288 288 288 288 288 288 288 288 288 289 289 289 289 289 289 289 289 289 288 288 288 288 288 288 288 288 287 287 287 287 287 287 287 287 287 287 287 286 286 286 286 286 286 286 285 285 285 284 284 284 283
312 314 316 318 319 321 323 320 319 319 314 308 307 311 316 317 312 306 303 301 300 300 300 302 303 302 301 299 298 297 296 295 295 295 295 295 294 294 293 292 292 290 289 288 288 288 288 287 287 288 287 288 288 288 289 289 289 289 289 289 289 289 289 288 288 288 288 288 288 288 287 287 287 287 287 287 287 287 287 286 286 286 286 286 286 286 286 285 285 285 284 284 284 284 284 283 283
312 311 313 316 317 317 316 314 314 314 314 312 310 313 315 312 307 301 300 300 299 299 300 300 302 301 300 299 298 297 296 295 295 294 295 295 294 293 293 292 291 290 289 288 287 287 287 287 287 287 287 288 288 288 288 289 289 289 289 289 289 289 288 288 288 288 288 288 288 288 287 287 287 287 287 287 287 287 286 286 286 286 286 286 286 285 285 285 285 284 284 283 283 283 283 283 282
311 311 314 314 313 313 313 311 309 310 316 317 313 314 313 311 308 303 301 302 301 300 300 300 301 301 300 299 298 298 297 296 295 295 295 294 294 293 292 292 291 290 289 288 287 287 287 287 287 287 287 288 288 288 288 288 289 289 288 288 288 288 288 288 288 288 288 288 288 288 288 287 287 287 287 287 287 286 286 286 286 286 286 285 285 285 285 284 284 283 283 282 282 282 281 282 282
312 313 316 313 311 313 314 316 314 313 319 318 313 315 315 314 314 307 303 305 304 302 301 301 301 300 299 300 299 299 298 296 295 295 295 294 294 293 292 292 291 290 289 288 287 287 287 287 287 287 287 288 288 288 288 288 288 288 288 288 288 288 288 288 288 288 288 288 288 287 287 287 287 287 286 286 286 286 285 285 285 285 284 284 284 284 284 283 283 283 282 282 282 281 281 281 281
311 312 312 313 315 315 314 316 318 318 319 317 313 313 313 315 315 310 307 307 306 304 302 301 301 300 300 300 300 299 298 296 295 294 295 294 294 293 292 291 290 289 288 287 286 286 287 287 287 287 287 288 288 288 288 288 288 288 288 288 288 288 288 288 288 288 288 288 287 287 287 286 286 286 286 285 285 285 285 284 284 284 283 283 283 282 282 282 282 281 281 281 281 281 281 281 281
308 309 310 311 313 315 315 314 315 317 318 316 314 313 313 314 314 313 312 310 308 305 302 302 302 301 300 300 300 299 298 296 295 294 295 295 294 293 292 291 290 289 288 287 286 286 287 287 287 287 287 288 288 288 288 288 288 288 288 288 288 288 288 288 287 287 288 287 287 287 286 286 285 285 285 285 285 285 284 284 284 283 283 283 282 282 282 281 281 280 280 280 280 280 280 280 280
310 311 312 311 310 311 313 313 312 314 316 316 316 316 315 312 311 312 312 310 308 307 304 303 302 301 301 301 301 300 298 296 296 295 295 295 294 293 292 291 290 289 287 287 286 287 287 287 287 287 288 288 287 288 288 288 288 288 288 288 288 287 287 287 287 287 287 287 286 286 285 285 285 285 284 284 284 284 284 283 283 283 282 282 282 281 281 280 280 279 279 279 279 279 279 279 280
313 313 313 313 313 312 315 315 312 311 314 315 315 317 316 310 306 307 308 306 307 306 305 304 303 302 302 301 301 300 298 297 296 295 295 295 294 293 292 291 290 288 288 287 287 287 287 287 287 287 287 287 287 287 288 288 288 288 288 287 287 287 287 287 287 287 286 286 285 285 285 285 285 284 284 284 284 284 283 282 282 281 281 280 280 280 279 279 278 278 278 278 278 278 278 279 279
Wind_Speed
8 6 8 8 6 3 1 2 0 2 1 4 3 1 3 2 2 2 1 1 0 2 1 3 2 2 2 3 5 5 5 4 5 4 3 3 2 3 8 5 1 10 18 27 22 17 20 18 18 16 16 15 14 14 13 13 12 10 9 8 8 9 9 8 8 9 9 9 9 8 8 8 8 7 7 7 7 8 8 9 9 10 11 10 8 7 7 8 8 9 9 9 9 7 6 6 5
9 7 8 7 5 2 1 2 0 3 2 5 3 2 3 1 1 2 4 3 3 3 1 3 2 3 4 4 5 5 3 3 4 4 2 3 2 3 7 7 1 10 19 27 23 16 17 17 19 17 16 15 14 14 12 12 11 10 9 8 8 9 9 9 9 9 9 9 8 7 8 8 8 8 8 7 7 7 7 8 9 10 10 8 8 8 8 8 9 8 8 10 10 8 6 4 4
10 8 8 5 3 2 1 1 1 3 2 4 4 2 1 1 3 4 4 4 4 3 2 2 2 2 5 4 3 3 2 1 3 2 1 4 3 3 5 8 2 10 19 26 24 16 15 17 19 18 16 16 14 13 12 11 11 10 9 9 9 9 9 9 9 9 9 9 9 8 8 8 7 8 8 8 7 7 7 8 8 8 7 7 8 10 10 9 10 9 9 11 10 9 6 5 3
10 9 7 3 1 1 1 1 1 1 2 3 4 3 0 2 5 4 4 4 4 3 2 1 2 1 4 3 2 2 2 2 1 2 1 5 5 5 4 9 2 9 18 25 25 18 15 18 20 19 17 16 15 13 12 11 11 10 9 9 10 9 9 9 9 9 9 10 9 9 8 7 7 8 8 8 8 7 8 8 7 7 7 8 10 11 10 9 9 9 11 11 10 8 6 5 4
9 9 7 2 2 1 0 1 1 0 3 2 3 4 1 2 3 4 4 4 3 2 1 2 1 1 2 2 2 1 3 2 2 3 2 4 7 6 5 8 3 9 17 23 25 18 16 20 22 20 18 17 15 14 12 11 10 10 9 9 10 9 10 10 10 9 9 9 9 8 8 8 8 8 8 8 8 8 8 7 6 6 6 8 10 10 9 9 9 9 11 11 10 8 7 6 4
8 6 7 4 1 1 1 2 2 3 4 2 3 5 3 3 3 4 4 2 1 1 2 3 2 1 1 1 2 2 5 3 3 3 2 4 8 5 5 8 4 9 15 21 24 20 16 20 23 21 19 18 16 14 12 11 10 10 9 9 10 10 10 10 11 10 9 9 9 7 7 8 9 9 8 9 9 7 7 6 5 4 6 8 10 11 11 10 9 9 10 11 9 8 7 6 5
6 3 3 3 2 1 1 3 2 4 3 3 3 4 4 4 3 4 2 1 1 1 1 1 3 3 0 1 2 1 4 5 4 5 7 9 9 4 6 8 5 8 14 18 23 23 16 19 24 21 20 18 17 15 13 12 11 11 9 9 9 10 10 10 11 11 10 9 8 8 6 7 9 9 8 10 8 6 6 6 5 5 7 9 11 13 12 10 9 8 11 13 9 8 8 6 6
7 3 1 0 2 1 1 3 2 2 2 1 2 2 3 4 3 3 2 2 1 1 1 0 2 3 2 1 1 3 4 7 7 9 10 10 6 1 6 7 6 8 13 15 19 22 18 20 24 21 20 18 17 16 14 13 11 11 10 9 9 10 10 10 11 11 11 9 8 8 6 6 8 9 10 10 7 5 6 7 7 7 8 10 13 14 13 12 9 8 12 15 11 9 8 6 6
6 3 1 0 1 2 2 3 2 1 1 1 2 1 3 3 2 3 2 1 2 2 3 2 3 3 3 2 1 5 4 10 10 8 9 6 3 1 6 7 5 6 11 14 16 19 18 20 23 22 20 18 18 16 14 13 12 12 10 10 9 9 10 9 10 11 11 10 8 8 6 6 7 9 10 9 6 4 6 7 8 8 9 11 13 13 13 13 10 10 13 15 12 9 8 7 6
2 3 0 1 1 2 3 2 2 2 2 1 1 2 2 1 2 3 2 2 2 3 2 2 2 3 4 2 2 3 6 13 10 8 10 6 3 2 5 7 6 5 8 12 14 16 17 19 23 22 20 19 18 17 15 13 13 12 11 10 9 8 9 9 10 11 12 10 8 8 7 6 8 10 10 9 6 3 5 5 6 7 9 10 11 12 13 13 11 12 15 15 13 9 8 7 7
0 3 0 1 1 2 2 2 2 2 2 1 1 1 1 1 3 2 3 2 1 3 1 1 2 2 3 1 3 3 7 14 14 12 11 7 4 2 4 6 6 4 6 9 11 12 11 14 21 22 20 19 18 17 16 14 13 13 12 11 9 9 8 8 10 11 12 11 9 9 7 7 9 9 10 9 6 4 4 5 5 6 7 8 9 11 12 13 14 15 15 15 14 10 9 8 7
0 1 1 1 1 0 1 2 3 3 3 3 4 4 1 1 2 1 2 3 1 2 1 1 1 3 4 0 3 3 8 15 16 14 11 9 6 3 2 5 5 3 4 5 6 7 6 8 15 20 21 20 19 18 17 15 14 13 13 12 10 9 8 7 9 11 12 11 10 8 7 7 9 9 10 9 7 5 4 6 6 5 5 6 7 9 10 12 14 15 15 16 15 12 9 8 7
1 1 1 1 1 1 1 1 2 2 4 3 4 3 1 1 1 3 3 3 2 2 2 1 1 2 4 1 2 2 6 14 15 12 12 9 6 5 1 2 3 3 3 4 5 5 5 6 9 14 18 20 19 19 18 16 15 14 13 12 11 10 9 7 8 11 11 12 11 9 7 6 8 9 10 9 7 6 6 6 5 3 3 5 6 8 9 10 13 13 13 15 16 14 11 9 8
1 0 1 2 0 0 1 1 3 3 4 5 3 3 2 1 2 2 3 3 2 2 3 1 1 3 3 2 1 3 6 14 14 10 10 9 6 5 3 2 3 3 3 4 5 5 6 6 7 9 14 17 17 18 18 18 17 15 14 13 12 11 10 8 7 9 10 11 12 10 8 6 7 9 10 9 8 8 6 5 3 1 1 3 6 8 8 8 11 12 12 13 15 15 13 10 9
1 1 1 3 2 1 2 0 2 4 3 5 1 3 2 1 1 2 2 4 3 3 2 1 1 3 2 2 2 4 11 17 14 9 7 7 6 5 4 4 3 3 3 4 5 6 7 7 6 7 10 13 14 14 16 17 18 17 16 14 13 13 11 9 8 8 9 10 11 11 10 8 6 7 10 10 9 8 6 4 4 2 1 3 4 7 7 8 10 11 12 12 12 13 13 11 10
1 1 0 2 2 1 2 1 1 3 3 4 2 2 2 2 1 3 1 4 4 2 2 3 2 3 4 4 5 8 13 14 11 7 4 5 5 4 4 3 3 4 4 4 6 7 8 8 7 7 8 11 12 13 14 15 18 18 17 16 15 14 12 10 9 8 9 9 10 11 11 10 8 6 8 11 10 9 7 6 5 4 2 3 4 6 6 7 9 10 13 13 10 10 12 12 10
1 1 0 2 1 1 2 4 3 1 4 3 2 1 3 0 1 2 1 3 6 3 3 4 1 2 5 4 6 9 11 11 8 6 6 6 6 4 4 5 4 4 4 4 6 7 8 8 8 7 7 10 11 12 13 14 16 17 17 16 16 15 13 12 10 10 10 10 10 10 11 11 9 8 7 10 12 11 9 7 6 6 5 5 6 6 6 7 9 8 12 15 12 9 9 11 10
1 1 0 1 1 1 3 4 3 1 2 2 1 1 2 2 2 1 2 5 5 5 5 3 2 5 7 8 8 10 12 13 12 11 11 10 9 6 6 7 7 5 5 4 5 7 8 9 9 8 7 9 10 11 13 13 14 16 16 16 16 15 14 13 12 11 11 11 10 10 11 10 9 9 7 8 12 12 10 9 8 7 6 6 7 6 6 7 7 7 12 16 14 11 7 8 10
1 1 1 1 2 1 1 2 2 1 1 1 0 1 2 2 2 2 5 5 3 5 3 2 4 7 7 10 11 11 13 14 15 14 14 12 10 9 8 8 8 8 8 6 6 7 9 9 9 9 8 8 10 11 11 12 14 15 16 16 15 15 15 15 13 12 12 12 11 11 11 10 9 8 7 8 9 11 10 9 8 8 7 7 7 7 8 6 5 8 12 14 15 15 9 6 9
0 0 1 2 2 0 2 3 2 2 1 3 1 2 2 2 1 1 5 9 6 3 2 1 1 4 6 8 10 10 11 13 15 14 14 13 11 9 9 9 10 10 11 10 8 7 9 10 10 9 9 9 10 10 10 11 13 14 13 14 15 15 15 15 13 12 12 13 13 11 11 11 11 8 7 9 8 9 10 9 9 8 7 7 6 7 7 5 4 7 12 12 12 15 12 6 8
1 1 1 4 2 1 3 5 3 2 2 3 1 1 3 1 1 3 4 8 4 2 5 6 4 6 6 6 9 10 11 13 14 14 14 13 12 10 10 9 10 11 11 11 9 8 8 11 11 10 9 10 10 11 10 10 12 13 12 13 15 14 13 13 13 12 13 14 13 12 11 11 11 9 8 8 8 9 10 9 10 8 6 8 7 4 3 4 3 4 9 10 8 11 12 8 7
1 1 2 4 2 1 3 3 2 1 2 2 3 3 1 2 2 3 4 5 3 4 6 6 5 6 5 6 8 9 12 13 14 14 14 13 13 12 11 11 10 11 12 11 11 9 7 10 13 11 9 10 11 11 10 9 10 11 12 12 13 13 12 12 13 13 14 15 14 12 11 11 12 11 9 10 8 8 9 9 9 8 7 7 6 4 3 3 4 3 6 6 7 9 11 11 10
1 1 1 2 2 2 1 2 2 3 3 4 3 2 1 3 2 2 4 3 5 6 5 6 6 5 4 5 8 10 11 12 13 13 12 12 13 13 13 12 12 12 12 12 11 9 6 6 12 13 9 8 11 12 10 9 9 10 11 11 10 10 12 12 13 13 13 15 14 12 12 13 13 12 11 11 10 9 10 10 10 9 8 7 7 6 4 4 4 3 3 5 8 10 11 13 13
3 0 2 2 2 4 1 1 2 4 6 4 1 1 4 5 2 2 2 3 6 6 6 7 6 6 6 8 10 10 10 11 11 10 10 10 11 12 12 12 12 11 12 12 11 9 8 4 7 12 9 7 9 11 10 9 8 8 9 9 8 8 9 10 10 11 12 14 14 14 15 14 13 14 13 12 11 10 11 12 12 12 10 9 8 6 5 4 4 3 5 4 7 9 9 12 13
2 1 2 2 3 5 4 3 4 5 7 3 2 5 4 3 1 3 2 5 5 4 5 5 6 8 9 10 11 10 11 11 11 11 10 9 10 11 11 12 12 12 13 14 12 10 9 5 2 8 8 7 8 10 10 9 8 7 7 9 9 8 8 9 10 9 9 10 12 13 14 16 16 16 16 14 12 11 11 12 13 13 12 11 10 8 6 5 4 5 7 4 4 7 8 10 11
1 0 0 2 2 4 4 5 5 5 4 2 4 5 2 1 1 3 5 5 4 4 5 6 7 9 10 9 10 10 11 11 11 11 10 9 10 12 14 15 15 14 15 16 14 12 10 7 2 5 6 7 8 8 8 8 7 7 6 6 6 4 4 6 7 8 6 7 7 7 7 12 18 18 17 15 13 12 11 10 10 11 12 14 14 10 7 7 5 6 7 5 4 7 8 8 9
1 1 2 5 4 4 4 5 3 3 4 4 6 4 4 2 2 3 5 4 4 5 6 6 7 9 8 7 7 8 9 10 9 9 10 11 11 14 15 16 17 17 16 17 16 14 12 9 4 4 6 9 9 8 9 8 6 5 5 3 3 2 1 1 2 4 5 5 4 3 3 5 11 15 16 15 13 12 11 8 9 11 13 15 15 12 10 10 6 5 5 5 6 6 7 7 7
1 2 4 6 5 5 4 3 2 2 2 4 6 2 4 3 2 2 5 4 3 4 7 7 7 7 6 6 6 6 7 8 8 9 11 12 12 13 14 15 17 17 17 17 17 14 13 11 8 6 6 10 9 8 10 8 5 6 7 5 5 5 3 4 4 4 2 2 2 2 1 0 3 7 12 14 12 10 9 9 11 11 11 12 13 12 10 8 5 3 4 5 6 6 6 7 8
0 2 5 6 7 5 1 1 0 1 0 2 4 3 4 5 3 3 5 2 3 5 6 6 6 5 5 5 4 5 7 7 8 10 11 10 10 11 12 13 15 16 16 16 16 15 14 14 13 11 10 11 9 9 11 8 5 7 8 7 8 8 7 9 10 9 7 5 4 3 3 3 2 1 5 9 8 7 5 6 7 5 5 7 8 8 6 6 6 4 5 5 5 4 4 5 7
1 0 3 6 7 2 2 1 1 2 0 2 3 4 3 7 4 4 5 1 3 3 5 4 4 4 4 4 4 5 7 8 9 10 10 9 9 10 11 12 13 15 15 15 17 16 16 16 15 15 16 15 14 13 13 10 7 9 10 10 10 11 11 12 13 12 11 9 7 7 7 6 6 6 3 2 3 1 1 2 1 4 5 4 4 5 4 4 5 4 5 6 5 5 5 6 7
1 1 1 3 4 1 4 1 3 2 0 1 4 5 1 8 4 5 6 1 3 2 4 4 3 3 3 3 4 4 6 8 9 10 10 10 9 10 11 12 13 14 15 16 17 17 17 18 15 14 16 19 19 18 16 14 13 13 15 15 13 12 12 13 15 14 13 12 11 11 11 10 11 10 8 6 4 4 5 5 5 5 5 5 6 6 5 5 5 6 7 7 6 7 7 7 6
0 2 3 2 2 2 2 3 2 2 1 0 4 5 1 8 5 5 5 1 3 4 4 3 3 3 3 3 3 3 5 7 8 10 11 11 10 10 11 12 13 15 16 16 17 18 19 21 19 16 15 19 22 21 21 21 20 18 19 19 18 18 17 19 20 19 17 16 15 15 14 13 13 13 12 10 8 9 8 7 7 5 4 3 3 3 4 4 4 4 4 5 5 5 5 5 6
2 3 4 2 3 4 1 3 1 2 1 0 2 5 4 5 5 3 3 1 3 5 4 3 3 3 3 2 3 3 4 5 8 11 12 11 10 11 10 11 13 15 16 17 18 19 20 21 23 23 21 21 23 24 24 26 27 27 27 26 26 27 27 27 27 26 25 24 23 22 20 20 20 19 18 16 15 16 14 13 12 10 9 8 7 6 5 5 5 4 3 3 3 4 5 5 7
2 2 3 3 3 4 2 2 2 2 2 2 2 5 8 3 7 3 4 2 2 4 4 3 3 2 2 2 3 3 4 5 7 10 12 11 10 10 10 12 14 15 16 18 19 20 21 22 25 26 26 26 26 26 26 28 30 31 32 31 31 31 31 31 30 29 28 28 27 25 24 24 23 23 22 21 20 20 19 18 16 15 13 12 11 11 11 9 8 7 6 6 6 6 6 8 9
3 2 3 3 3 5 5 3 1 1 2 4 3 6 10 5 7 5 4 2 1 3 3 2 3 2 2 2 3 4 4 5 7 9 10 10 9 10 10 13 15 16 17 19 20 21 22 24 26 28 28 29 30 30 28 29 31 32 32 31 31 31 30 29 28 28 27 26 26 24 22 22 22 21 20 20 20 20 19 19 18 17 15 14 13 13 13 12 11 10 9 9 7 8 9 9 11
4 3 4 5 5 6 5 2 1 0 4 6 8 9 11 10 3 6 4 3 2 3 3 2 2 2 2 2 3 3 4 5 6 8 9 9 9 9 10 12 14 16 18 19 20 22 22 23 26 28 29 30 32 32 31 30 30 32 33 31 30 31 30 28 28 28 27 26 26 24 22 22 21 20 19 19 19 19 18 18 17 17 16 16 16 17 17 16 14 12 10 12 8 7 10 12 14
1 2 4 6 7 7 5 0 3 1 4 6 8 8 11 13 3 6 3 2 3 2 2 2 2 2 2 2 3 3 4 4 5 6 7 8 9 10 11 12 13 16 19 19 20 21 22 22 24 26 27 29 29 30 30 29 29 29 31 32 32 32 31 30 30 29 28 28 26 26 25 24 23 22 22 21 21 21 20 20 19 19 20 20 20 20 19 18 18 14 10 12 11 8 11 15 18
3 4 5 6 7 7 4 1 2 2 3 5 4 6 11 10 1 5 3 3 2 2 1 2 2 2 2 2 3 3 3 3 4 5 7 8 9 10 11 13 14 16 18 20 21 21 22 22 23 24 24 26 27 27 27 28 29 29 31 33 33 33 32 32 32 31 29 28 27 27 27 26 25 24 24 23 23 23 22 22 22 21 21 21 21 20 20 19 20 20 14 11 11 11 12 17 22
5 4 5 6 5 4 4 2 1 2 3 4 1 5 10 5 4 4 3 3 3 2 2 2 1 1 2 2 2 3 3 3 4 5 6 7 8 9 10 12 15 17 18 20 21 22 23 24 24 24 24 25 26 26 26 28 30 29 30 32 33 34 34 33 33 32 30 29 29 29 28 27 26 26 25 24 24 24 24 24 24 23 23 22 22 21 22 22 21 22 20 16 12 11 12 16 21
6 5 6 7 2 1 5 2 2 2 2 3 3 6 10 3 5 4 4 3 4 3 3 2 1 1 2 2 2 2 3 4 4 4 6 7 8 9 10 11 13 16 18 19 20 22 23 23 25 26 25 26 26 26 27 29 30 30 32 33 34 35 35 35 35 34 33 33 32 32 31 30 29 28 28 27 27 26 26 26 25 24 24 24 24 23 24 24 23 22 21 20 16 12 11 13 16
6 7 8 8 3 5 8 1 1 3 2 1 3 7 8 3 3 3 4 3 3 3 3 3 2 2 2 2 2 2 2 3 4 5 5 6 7 9 10 10 12 15 17 18 19 20 21 22 25 26 27 28 29 29 30 30 31 32 32 32 32 34 34 33 33 33 34 35 35 34 33 32 31 31 30 30 29 28 28 28 27 27 26 26 26 26 26 25 24 24 22 21 19 14 11 11 13
5 8 11 11 9 9 7 1 2 5 3 2 2 6 3 2 3 4 4 4 4 3 3 4 3 3 3 3 3 3 2 2 3 4 5 6 7 8 9 11 12 13 15 17 17 18 19 21 24 25 27 28 28 28 28 28 29 29 28 27 27 28 27 25 25 27 31 35 35 34 33 32 32 31 31 30 29 29 28 28 28 27 27 27 27 27 27 26 24 25 24 22 21 17 11 11 13
5 3 7 11 10 7 5 4 3 4 2 1 1 5 3 1 2 5 5 5 5 4 4 4 4 4 4 4 4 4 4 3 3 4 5 6 6 7 9 10 11 12 15 17 18 19 20 20 22 23 24 24 24 24 24 26 29 29 30 31 29 27 25 23 23 27 30 33 34 33 32 32 31 31 30 30 29 28 28 28 27 27 27 27 27 26 25 25 24 23 23 22 21 20 16 12 13
3 1 2 6 8 7 7 7 6 3 2 1 3 2 4 5 2 4 5 5 5 5 6 6 5 5 5 4 4 4 3 3 4 4 4 5 5 7 8 9 10 13 16 19 21 21 22 21 22 22 22 22 23 24 25 27 30 31 33 36 34 31 30 27 27 29 30 31 32 32 31 30 30 30 29 28 28 27 27 27 26 26 26 26 26 25 24 23 22 22 22 21 20 20 19 14 12
1 2 2 3 4 5 5 5 4 1 2 4 5 4 3 6 2 3 3 4 5 7 8 8 8 8 7 6 5 4 3 3 3 3 4 5 5 6 8 9 12 16 19 21 23 24 26 26 25 26 26 26 27 27 27 28 30 32 34 36 36 33 32 30 29 30 29 30 30 30 30 29 28 28 28 27 27 26 26 26 25 25 25 25 24 24 23 22 22 22 21 21 20 19 18 16 13
3 5 5 6 4 4 3 3 3 2 3 7 6 8 5 5 3 3 3 4 6 8 8 9 9 9 8 7 7 5 4 3 2 3 4 4 5 6 8 10 13 18 21 22 25 27 28 28 28 29 29 29 29 28 28 29 30 32 33 34 35 32 30 28 27 27 25 26 28 27 27 27 27 27 27 27 26 25 25 25 25 25 24 24 24 24 23 23 22 22 21 20 19 18 17 16 14
5 6 6 6 5 4 2 1 1 2 5 5 2 6 5 4 3 4 3 1 4 8 9 8 10 10 10 8 7 7 6 5 4 4 5 5 5 6 8 10 13 17 21 23 25 27 28 28 28 29 29 28 29 29 29 29 30 31 32 32 33 31 29 26 25 23 22 23 24 23 24 24 25 26 25 25 25 24 24 23 23 23 23 22 22 22 22 22 21 21 20 19 18 18 17 16 15
3 3 4 5 3 3 2 2 2 5 5 1 2 1 4 5 3 1 2 1 3 8 10 12 14 12 11 9 8 8 6 6 5 5 6 6 6 7 8 10 12 15 19 22 24 26 27 28 28 29 29 28 29 28 28 29 29 30 30 30 30 29 28 26 25 23 22 22 21 20 20 21 22 24 24 24 24 23 23 23 22 22 22 21 21 21 21 20 20 20 19 18 18 17 16 15 15
2 3 5 5 3 3 3 3 3 5 2 2 2 1 4 6 5 1 3 3 2 4 7 13 16 14 12 11 9 8 6 6 6 5 6 7 7 8 8 9 10 13 17 20 22 25 26 27 28 29 29 28 29 28 28 29 29 29 29 28 28 28 27 26 25 23 21 21 20 20 19 19 20 22 22 22 22 22 22 22 22 22 21 21 21 21 20 20 21 20 20 19 18 17 16 15 14
6 6 6 5 4 3 4 3 2 3 1 2 1 2 3 4 4 1 3 4 1 0 1 7 14 15 13 11 9 8 7 7 6 5 6 7 7 8 8 9 10 12 16 19 21 24 26 26 27 29 29 28 28 28 28 28 28 28 27 27 27 26 26 25 24 23 21 20 20 20 18 18 19 19 19 19 19 20 20 20 21 21 21 21 21 22 22 22 22 21 20 20 19 17 17 16 16
5 2 1 3 3 3 4 3 2 2 2 2 1 2 3 3 1 2 2 2 1 1 1 2 7 10 10 9 9 8 8 7 6 6 6 7 8 8 8 9 10 12 16 19 21 23 25 26 27 28 29 28 28 28 28 28 27 26 25 25 25 24 24 23 22 21 20 19 18 18 17 16 17 17 17 17 18 19 20 20 20 21 21 22 22 23 23 22 23 21 19 20 19 18 18 17 17
2 1 0 3 2 1 1 1 1 2 1 2 3 3 2 1 2 1 1 0 1 2 2 4 6 8 8 8 8 9 8 8 7 7 7 8 8 8 8 9 10 13 16 19 21 23 25 26 26 27 28 27 27 27 27 26 26 24 23 23 22 21 21 21 20 19 18 17 16 16 16 15 15 15 15 16 17 19 19 20 21 21 22 23 23 24 23 23 24 22 20 20 20 19 20 19 18
3 2 4 2 2 1 2 0 2 1 4 3 4 4 2 1 2 3 2 1 2 3 4 7 9 9 9 8 9 9 8 8 8 7 7 9 9 8 8 9 11 13 15 18 21 23 25 26 26 27 27 26 25 25 25 24 24 22 21 20 20 19 19 18 17 16 15 15 14 14 13 13 13 13 13 14 15 16 17 18 19 20 21 22 22 23 24 24 24 22 21 21 20 20 21 19 18
4 4 4 3 1 1 1 2 0 2 6 3 4 7 5 4 3 3 4 5 6 7 7 7 9 10 11 10 10 9 8 8 8 8 8 9 9 9 9 10 11 13 15 18 21 23 24 25 26 26 25 25 24 24 23 22 21 21 19 18 17 16 16 15 14 13 13 12 11 11 10 10 11 11 11 12 13 15 16 17 19 20 21 21 22 22 23 23 23 22 22 21 21 22 22 20 19
1 2 1 2 2 2 2 3 2 3 5 3 3 5 5 6 4 4 8 10 10 9 8 9 12 13 13 12 11 10 9 8 8 8 8 9 10 10 11 11 12 14 17 18 21 23 24 24 24 24 24 24 23 22 21 20 19 18 17 16 15 14 13 12 11 10 9 8 8 9 9 9 10 11 13 14 16 17 18 20 21 22 23 23 24 24 24 24 23 22 22 21 22 23 23 23 22
2 1 2 0 2 1 2 2 1 3 4 3 2 2 4 6 6 9 12 12 12 12 10 12 14 15 14 12 12 12 10 9 9 9 9 10 11 12 13 13 14 16 18 20 22 22 22 23 23 23 23 23 22 20 19 18 16 16 15 14 12 11 9 8 8 7 6 7 8 9 9 11 13 14 15 17 18 19 20 22 22 23 24 24 24 24 24 24 24 23 22 22 23 23 22 22 21
4 5 5 3 1 0 1 1 1 1 3 3 4 4 3 3 2 5 6 5 8 12 12 12 12 14 15 13 12 11 10 10 10 9 10 12 13 13 13 13 14 17 19 21 23 22 21 22 22 23 23 22 21 19 18 16 15 14 12 11 10 9 8 7 6 5 6 7 9 10 11 13 15 16 18 19 20 21 22 22 23 23 23 23 23 23 23 23 23 23 22 23 23 23 21 20 19
3 6 7 7 5 3 3 4 2 0 3 2 3 5 2 3 2 2 2 3 2 7 8 9 11 14 15 13 11 10 9 10 10 10 11 13 14 14 14 15 17 20 21 22 23 22 22 22 22 22 22 21 19 18 16 15 14 13 11 11 10 9 8 7 6 6 7 8 10 12 14 16 17 18 20 21 22 22 23 23 23 23 23 23 22 22 22 22 22 22 22 22 22 22 22 21 20
Wind_Direction
352 349 353 353 356 310 293 332 117 85 40 92 74 99 91 360 320 306 101 113 172 85 357 319 292 266 288 317 326 322 302 298 353 347 43 60 341 12 183 178 142 177 176 178 174 174 174 169 173 176 177 178 178 175 174 170 169 168 158 160 160 150 146 144 144 141 137 135 131 129 130 125 122 123 125 120 113 114 111 102 93 84 79 78 73 64 54 52 51 48 39 26 21 14 14 14 15
355 351 353 358 6 325 162 316 216 118 132 105 83 45 73 231 242 35 53 34 26 57 340 305 267 253 279 284 283 276 259 258 327 345 23 350 337 32 181 171 126 176 178 180 174 173 177 176 175 176 180 180 181 178 177 174 173 172 164 166 161 154 152 148 148 145 142 142 137 133 134 133 131 129 132 126 117 115 105 96 87 81 77 75 68 52 50 49 38 34 24 20 17 8 4 1 1
1 355 346 346 13 7 145 274 185 134 131 103 98 90 60 143 73 41 34 9 7 353 296 268 240 253 254 235 262 284 58 214 292 289 270 337 353 22 185 177 147 174 180 181 176 173 177 184 179 177 184 182 182 183 184 183 180 176 171 169 161 158 158 153 151 148 148 148 143 139 138 140 140 134 134 132 127 119 104 95 90 87 78 67 56 43 44 39 29 24 6 7 12 7 360 353 349
3 357 342 301 214 54 213 44 103 147 117 110 108 108 340 57 55 32 22 350 339 313 272 236 216 162 269 297 358 291 22 67 51 297 295 13 360 348 197 182 155 173 182 182 180 174 177 190 183 179 185 185 185 186 188 189 187 183 179 175 168 163 160 157 153 151 151 150 146 141 139 138 138 140 140 139 132 122 113 110 108 95 74 52 43 44 49 38 26 18 359 356 1 5 3 356 349
2 5 11 288 230 40 357 82 111 170 97 113 112 108 77 41 31 11 356 348 350 300 283 292 285 122 264 315 318 307 23 49 66 335 318 18 358 347 182 177 156 174 182 184 184 176 183 193 185 183 187 188 188 190 193 192 193 188 184 180 175 171 165 159 157 157 153 152 149 142 142 140 140 148 148 138 130 129 128 129 123 95 60 39 37 43 40 29 23 13 357 351 357 8 8 3 359
0 7 41 60 110 21 207 130 130 104 70 35 97 105 68 39 3 340 330 6 56 299 304 308 336 300 227 114 267 315 1 323 340 353 324 335 344 353 172 171 155 174 181 185 188 183 189 194 186 184 189 191 190 193 197 196 198 192 188 183 179 176 170 161 161 161 156 156 151 146 151 151 151 155 151 136 134 139 142 142 129 78 41 37 38 36 27 26 24 8 353 348 360 18 16 11 9
356 337 46 67 107 292 221 105 108 107 70 356 51 78 50 34 350 329 340 101 128 159 235 328 327 288 219 39 257 260 336 324 324 324 312 308 328 347 173 172 158 173 182 185 192 191 193 194 188 187 190 192 192 197 199 199 201 195 191 186 184 179 173 166 168 166 161 162 152 152 161 160 159 158 153 144 140 132 138 144 117 70 53 47 40 34 28 30 26 4 354 354 7 26 22 18 18
2 360 258 347 90 24 90 106 91 81 81 345 348 14 11 6 332 319 10 24 21 28 298 35 284 282 77 332 301 77 12 350 325 312 313 305 323 345 176 175 162 172 184 186 194 196 198 196 193 194 193 193 195 199 201 202 202 200 195 188 188 183 178 172 172 172 166 166 158 160 167 168 165 161 158 154 146 108 110 117 95 77 63 50 41 37 29 30 31 11 4 3 7 22 26 23 25
12 16 231 226 87 94 108 119 96 62 87 107 303 313 327 337 297 295 350 19 355 319 318 360 295 316 21 300 44 88 20 353 339 326 332 323 357 106 177 175 167 173 187 188 194 200 203 200 199 200 199 197 198 202 203 206 207 206 202 193 192 186 185 180 176 177 174 170 166 167 171 178 170 163 164 163 157 108 99 101 85 74 61 50 44 40 31 31 36 17 7 6 5 14 24 25 29
16 24 201 121 114 144 136 140 117 111 75 40 321 331 317 297 249 268 298 357 14 317 352 18 273 324 343 321 74 83 2 4 10 360 354 358 39 104 171 177 170 174 193 195 196 201 206 205 205 205 205 203 203 205 206 210 212 212 210 202 198 191 190 188 184 183 181 176 176 177 176 186 176 165 169 174 173 132 107 97 83 71 59 51 44 41 35 31 32 20 11 10 10 13 17 22 30
359 43 326 176 159 170 161 149 124 96 72 67 86 33 349 270 246 238 286 327 32 300 3 153 232 331 309 312 80 72 22 19 19 4 360 3 14 72 167 180 172 177 198 201 199 200 205 209 209 209 210 208 208 210 210 214 216 217 215 208 207 204 198 194 194 191 187 184 184 187 187 189 182 176 177 181 179 154 129 111 98 80 64 52 42 35 31 27 25 22 17 16 17 15 11 16 25
31 51 281 180 143 127 119 135 122 92 106 126 93 72 22 261 252 353 320 328 344 279 137 168 339 343 285 227 99 92 45 22 8 354 356 357 354 12 169 183 182 195 208 207 202 202 203 208 212 212 214 213 212 212 213 218 221 222 218 214 214 215 212 202 203 200 193 193 194 196 200 195 187 191 186 180 180 171 154 129 115 94 71 49 36 24 20 22 20 19 20 20 21 20 11 9 18
36 48 280 117 38 33 113 130 124 118 135 123 65 56 315 255 344 12 328 328 313 306 69 41 328 274 280 328 122 123 43 13 356 346 346 347 352 351 331 205 203 214 228 220 209 205 207 207 210 214 218 218 216 215 215 219 224 224 221 220 221 222 226 217 210 208 202 199 201 204 209 206 195 199 194 182 185 182 170 149 129 96 69 42 26 7 2 16 15 13 18 22 23 23 16 6 9
20 29 334 100 89 136 147 145 151 182 148 111 48 354 284 241 6 331 301 328 326 357 28 55 276 263 269 277 162 94 9 352 348 345 336 339 354 350 340 301 258 237 234 224 220 212 214 213 209 212 218 220 220 221 219 220 224 226 224 225 227 230 235 230 219 217 214 206 205 208 213 218 202 203 201 191 193 188 178 168 151 108 28 24 10 354 355 14 10 5 13 18 22 23 20 12 6
10 146 40 115 142 166 183 340 154 197 148 109 67 322 291 170 323 264 272 326 338 38 349 222 236 282 330 331 4 12 335 335 342 345 336 340 356 355 357 336 313 284 247 222 227 222 223 221 217 214 214 217 217 222 223 223 226 228 227 226 229 234 235 235 229 225 223 216 212 213 220 230 219 210 205 195 198 194 188 204 197 196 264 323 336 343 358 13 3 1 7 10 17 21 22 18 11
28 171 113 127 145 193 187 154 165 197 143 114 124 280 274 152 217 271 15 320 298 48 318 262 197 288 349 4 355 342 332 341 347 349 1 4 10 16 26 12 348 313 282 246 230 223 228 226 223 221 213 214 213 217 221 224 227 229 233 231 230 233 232 232 232 232 230 228 222 220 228 236 237 234 211 195 201 203 201 214 212 211 261 291 301 329 353 6 356 356 3 3 7 15 21 21 18
274 239 170 126 156 206 177 174 180 132 119 134 131 284 302 90 201 257 31 265 271 293 291 276 196 11 21 40 2 352 359 14 19 29 42 34 30 32 31 19 11 341 321 295 259 238 231 229 228 226 219 216 213 216 218 224 227 227 234 236 233 233 232 229 231 235 233 233 233 230 235 236 238 243 227 204 200 205 213 220 228 238 256 280 294 322 345 352 349 350 359 3 3 4 16 20 19
282 234 87 133 154 135 164 177 166 92 96 131 93 351 302 327 321 321 274 222 240 279 273 275 112 97 74 57 25 20 29 35 43 48 47 38 29 23 16 6 5 356 338 319 286 264 245 236 230 228 227 218 212 215 217 221 226 222 225 232 235 236 236 231 230 234 232 230 233 237 238 237 236 239 239 221 205 207 220 229 239 240 250 285 295 320 342 338 339 346 356 4 8 5 8 17 18
335 126 335 143 137 95 164 163 142 200 25 16 314 185 259 318 336 342 310 281 276 291 267 143 124 113 70 38 27 27 31 34 40 44 45 39 27 18 9 358 357 354 339 319 289 268 254 245 235 229 226 221 213 213 217 221 225 222 223 229 235 240 241 236 230 226 230 232 232 236 240 239 237 235 237 236 223 217 224 241 247 238 253 285 291 314 327 315 323 351 2 5 8 7 7 11 15
332 215 305 118 138 182 213 212 189 224 324 309 294 143 246 279 283 301 309 301 298 313 12 44 100 66 32 26 22 18 28 34 35 39 42 36 28 20 7 357 351 346 340 331 309 278 259 249 241 234 224 219 214 211 216 220 224 224 224 226 230 235 233 234 233 224 230 237 236 241 245 243 239 237 238 243 240 224 227 247 241 230 258 283 284 308 315 294 309 352 4 6 8 10 10 10 11
154 265 15 104 149 231 185 203 217 222 232 275 302 213 248 155 221 267 290 300 303 55 14 1 8 27 24 25 16 17 30 33 33 34 34 29 22 17 6 355 346 340 341 341 330 305 270 249 239 235 227 218 212 211 212 218 224 224 223 223 227 230 225 233 242 235 234 235 238 247 250 250 246 238 235 237 236 227 231 240 232 233 262 270 275 292 288 274 270 326 359 8 11 12 14 12 12
165 96 38 107 165 260 134 176 213 180 189 237 242 266 308 131 208 244 248 287 354 24 2 17 39 47 39 21 13 23 30 29 30 28 26 24 17 12 3 355 349 346 347 344 335 321 289 254 236 226 223 218 210 208 209 215 222 221 222 220 223 232 235 242 244 238 239 235 236 245 246 247 245 238 232 228 224 230 233 229 230 243 256 253 260 261 242 244 243 281 350 7 6 7 11 11 14
273 117 106 159 194 268 118 160 199 174 204 237 247 315 334 232 238 211 231 294 30 34 29 53 63 63 51 33 29 32 31 28 28 24 20 19 15 9 2 358 353 349 347 343 337 330 317 271 235 220 212 214 209 205 207 211 218 222 222 219 223 236 240 244 245 244 248 243 238 241 242 240 238 234 231 230 227 231 235 232 234 241 248 243 239 243 237 231 239 271 317 350 8 9 8 8 9
280 154 154 184 208 248 236 178 195 195 234 255 305 306 257 256 264 179 193 54 56 58 58 64 68 64 56 47 40 35 34 30 28 25 22 18 13 9 6 4 359 354 352 348 345 341 336 313 231 216 203 200 204 200 202 206 212 222 221 215 218 230 231 235 244 252 258 252 247 247 244 239 237 233 231 232 232 234 239 246 250 245 243 242 235 237 236 228 226 245 275 331 17 11 9 10 3
239 281 134 148 204 243 253 243 235 227 248 258 248 258 247 259 236 157 96 72 83 79 65 62 64 57 49 41 35 31 29 26 22 20 18 15 10 13 16 11 7 3 3 2 358 354 350 355 198 201 195 189 193 191 196 202 203 215 222 220 225 232 223 225 240 250 258 259 259 260 252 241 237 240 240 235 232 233 238 250 254 245 241 245 246 248 246 234 227 251 275 310 2 358 5 14 8
211 359 108 249 249 264 264 252 248 239 250 195 235 255 161 176 216 123 71 76 110 92 67 56 58 54 47 39 33 29 27 22 16 13 10 10 12 16 17 12 12 10 11 17 14 10 11 15 81 160 174 172 175 180 186 192 197 204 208 217 238 254 218 218 240 247 251 264 272 280 274 249 238 241 244 238 236 236 235 242 247 244 248 252 250 249 253 248 248 277 301 309 317 345 355 4 11
58 48 275 264 276 281 248 248 254 240 240 202 238 259 120 161 241 127 75 87 132 100 72 56 61 61 52 48 40 32 31 24 13 12 11 15 17 15 13 9 12 18 20 25 26 26 34 35 50 116 153 155 155 169 172 174 183 184 181 188 194 184 174 162 232 244 247 253 262 276 304 269 242 238 240 238 237 238 232 225 237 244 249 257 251 240 246 248 255 303 319 300 297 326 334 337 357
82 305 272 254 267 267 238 247 270 250 231 199 234 242 128 179 214 93 59 84 150 99 78 60 61 64 57 55 49 41 35 26 18 20 21 19 15 11 11 6 9 21 26 29 34 38 50 60 68 80 119 129 128 155 161 156 151 140 145 139 124 135 117 83 106 120 132 172 174 203 210 10 263 239 233 232 232 244 241 220 228 240 242 252 251 242 246 245 245 281 281 281 290 305 316 323 339
151 299 293 282 277 269 266 90 249 283 203 152 232 233 159 163 139 59 38 96 142 94 77 63 61 60 57 56 52 47 35 29 30 27 23 18 13 13 12 8 10 23 33 39 47 52 59 70 84 93 106 118 125 148 154 158 154 129 133 119 97 105 103 93 101 109 110 119 122 95 85 80 35 6 228 227 231 261 267 224 225 252 266 262 262 265 266 250 247 261 272 284 284 292 316 318 325
224 189 311 298 286 260 96 58 298 307 10 130 250 260 167 139 112 17 10 199 188 91 68 60 57 54 50 51 52 52 39 33 35 30 24 18 15 18 16 15 22 31 41 50 57 62 66 70 86 96 95 110 126 134 142 150 144 120 114 105 95 96 95 92 93 99 102 102 101 85 76 77 73 74 89 165 199 248 42 74 61 29 2 338 331 328 310 279 279 300 310 309 304 307 325 324 318
273 263 238 284 296 185 122 79 307 294 78 180 235 268 216 142 126 2 3 301 210 116 77 64 52 55 47 49 55 53 47 40 37 31 24 20 17 22 22 23 34 45 51 59 64 70 77 79 89 97 89 93 103 108 116 121 121 116 103 93 90 88 88 94 92 89 90 89 91 90 83 76 74 78 80 90 105 98 88 75 62 48 21 10 15 14 5 351 337 331 327 329 330 324 325 329 321
67 273 237 185 272 245 123 81 330 281 98 163 232 266 265 145 127 18 10 335 150 120 94 78 62 59 51 52 57 54 55 45 39 32 21 18 18 21 25 28 42 54 59 67 75 82 88 87 91 102 96 89 92 96 97 99 105 106 97 90 88 89 91 95 93 90 89 88 90 91 90 85 82 83 82 84 93 92 90 89 86 83 71 51 40 26 12 6 355 336 326 329 336 334 330 327 319
160 249 262 225 238 269 318 97 23 323 124 158 244 272 285 143 125 43 44 54 128 121 111 98 85 65 63 59 55 52 53 41 33 25 15 14 17 20 26 35 50 62 68 76 86 90 93 94 95 102 104 99 96 99 98 97 99 98 96 95 94 94 94 93 92 92 90 88 88 88 89 90 90 90 88 89 92 93 91 92 93 96 97 99 104 98 83 71 59 55 46 22 8 357 350 345 334
191 193 252 255 239 261 283 149 100 351 239 227 210 251 273 173 133 100 66 74 145 124 117 111 102 83 75 63 60 53 44 38 25 14 9 10 16 23 34 49 63 73 79 84 91 93 96 99 100 102 108 109 103 102 103 102 101 99 97 95 94 92 90 88 88 87 85 84 84 84 85 86 86 87 87 88 89 88 88 89 89 89 89 90 91 89 83 73 63 55 45 34 24 15 8 359 349
267 216 243 255 228 237 260 262 117 39 249 239 222 237 265 245 140 112 73 75 133 113 106 109 100 90 80 67 64 56 48 44 25 10 5 6 14 25 42 60 72 80 84 89 93 96 99 101 102 102 105 108 107 105 104 104 103 101 97 94 92 89 85 83 81 80 79 79 79 80 80 80 80 81 82 83 83 82 82 82 81 79 77 75 71 68 65 59 53 46 41 37 24 22 22 6 354
291 261 263 261 252 243 248 270 87 349 266 249 248 253 265 263 188 111 92 83 101 112 107 101 90 82 78 71 65 58 55 47 24 12 9 10 18 29 46 59 69 82 87 91 95 99 101 104 106 107 107 109 109 107 105 104 102 100 98 95 91 87 85 83 81 81 80 79 79 79 78 77 77 78 79 80 80 80 79 77 75 71 67 64 59 57 54 50 47 42 39 39 32 25 23 12 0
267 254 256 252 256 258 256 248 98 93 277 256 248 257 263 264 251 98 107 127 118 123 117 96 86 80 69 70 70 61 58 47 24 20 21 20 26 37 54 61 66 79 86 90 95 98 100 105 109 110 111 112 111 110 109 106 102 100 98 95 92 88 86 86 84 83 82 81 81 80 79 77 77 77 78 79 79 78 77 75 73 69 66 63 61 60 56 52 49 45 38 35 38 34 22 15 8
232 250 253 251 246 255 272 264 116 115 263 260 239 258 262 256 209 88 120 160 123 85 107 97 78 84 78 75 79 69 68 63 48 42 35 32 35 42 56 64 69 75 80 87 92 95 99 105 108 107 110 113 113 112 111 108 104 102 100 97 94 91 89 88 86 84 84 83 82 80 80 78 77 77 75 76 77 77 76 74 72 70 70 67 64 63 58 55 50 47 44 34 35 35 27 19 15
231 240 253 259 248 265 274 236 140 154 234 265 273 279 270 244 113 88 97 120 98 68 72 80 78 113 115 98 93 95 97 88 72 59 47 42 41 46 55 62 72 78 83 89 92 95 99 102 102 103 106 110 111 111 110 108 106 105 103 99 97 94 91 90 89 87 86 84 82 81 80 79 77 76 75 75 76 77 76 75 73 71 71 68 64 60 55 51 47 45 44 38 33 31 30 23 21
223 223 243 250 218 270 262 194 114 171 228 294 318 292 274 223 123 104 85 93 104 96 97 96 95 107 105 99 92 108 116 106 89 70 56 52 47 49 52 55 69 81 85 89 92 95 99 100 102 104 106 107 108 109 109 109 108 107 105 102 100 97 93 92 91 88 86 84 83 81 80 78 77 76 76 76 75 75 75 74 72 70 69 68 63 58 53 48 45 42 41 38 34 27 25 23 23
217 219 238 251 232 234 249 275 49 222 203 258 277 281 269 218 174 147 113 127 126 122 141 138 129 120 117 124 112 101 104 100 94 81 62 56 53 50 50 53 64 75 82 87 92 96 99 102 106 108 109 109 110 110 110 109 109 107 105 102 99 95 91 89 86 84 84 83 82 81 80 78 77 76 74 73 72 71 71 70 70 68 66 65 63 60 56 51 48 46 43 39 38 31 20 20 22
236 217 225 242 248 242 238 229 310 259 228 165 251 269 251 148 186 168 144 164 149 147 173 159 147 147 159 156 143 133 112 93 88 87 75 67 68 63 57 58 63 69 80 90 96 101 106 109 112 113 113 113 114 114 114 114 113 111 109 104 98 94 88 82 81 82 83 84 83 81 80 78 76 74 71 70 69 67 66 66 65 65 64 63 62 60 57 53 49 48 47 43 42 39 29 24 21
261 219 212 226 237 238 221 193 207 257 275 102 226 267 263 220 190 148 154 174 157 163 181 171 168 166 171 166 154 153 135 120 105 96 91 85 83 79 71 66 68 76 87 97 102 107 112 116 118 118 118 118 118 118 118 118 117 115 111 105 99 96 93 89 89 89 88 87 85 82 79 77 74 72 70 67 66 64 63 62 62 61 61 60 59 58 57 54 50 48 47 45 44 42 40 34 23
252 87 179 201 208 210 201 196 208 259 326 191 194 242 278 271 254 120 153 171 162 179 186 179 181 176 173 171 161 156 143 131 122 111 104 98 91 89 87 78 80 91 98 102 105 108 113 117 119 120 119 120 121 121 121 118 115 111 107 104 100 99 98 97 95 92 90 88 85 81 78 74 71 69 66 64 61 60 58 57 57 56 56 55 54 53 52 50 47 45 43 43 42 40 40 38 27
266 78 122 153 174 186 177 191 216 265 312 249 199 154 254 259 213 115 157 197 201 190 188 187 183 178 175 173 167 153 141 135 127 124 119 109 100 92 94 92 96 103 104 105 107 108 111 113 115 117 116 116 118 120 119 115 112 108 106 104 102 100 100 98 96 93 90 86 83 79 75 71 68 65 62 59 56 54 52 51 51 50 50 49 48 47 45 42 40 38 37 36 36 37 36 35 30
137 122 108 95 90 102 135 197 194 136 239 255 205 169 228 265 203 171 176 231 222 187 184 187 177 178 178 171 167 161 154 156 146 138 131 118 108 101 100 101 104 108 108 108 110 110 111 112 114 115 114 114 115 115 114 111 109 107 106 105 104 103 101 99 96 92 87 84 80 76 73 69 65 62 58 55 52 50 48 46 46 45 44 42 40 38 36 34 32 31 30 28 28 28 28 28 26
144 146 115 99 93 98 106 160 150 201 233 251 194 175 224 266 222 198 176 230 200 168 171 178 175 181 182 174 170 168 166 165 162 152 139 126 116 111 109 107 109 112 112 112 113 113 114 114 115 114 113 113 114 113 111 109 108 107 106 105 105 104 102 98 94 89 85 81 77 73 70 66 62 59 55 52 48 46 45 42 42 41 40 38 36 34 31 29 27 25 23 20 19 19 17 17 16
166 166 143 133 118 140 163 140 175 240 228 145 55 148 219 234 231 161 132 123 183 171 169 173 179 184 180 176 174 171 172 168 166 163 150 143 134 127 121 116 115 116 116 116 116 116 115 114 115 114 113 113 113 112 111 109 107 107 105 104 103 102 99 95 91 87 82 78 74 71 67 62 58 53 49 46 42 40 38 36 35 34 33 32 30 29 26 25 24 21 19 17 15 14 12 11 8
214 175 167 179 169 179 212 189 196 242 228 83 54 158 210 237 250 236 146 150 190 186 172 173 176 179 177 175 174 173 174 173 173 172 164 159 151 144 136 128 124 121 120 121 120 120 118 117 117 117 115 115 115 113 111 109 107 106 105 103 101 98 95 91 88 84 80 76 72 68 64 59 55 50 45 42 37 34 32 30 28 27 25 24 22 21 19 18 18 17 15 14 13 11 8 8 6
198 181 178 195 182 197 222 198 227 262 176 75 22 192 213 243 257 267 126 122 119 60 181 180 175 174 175 171 170 173 175 180 182 177 173 168 160 155 146 137 131 127 128 128 126 125 123 121 121 120 118 118 117 114 112 109 107 105 104 101 98 95 92 89 85 82 79 75 71 68 64 60 55 49 43 38 32 28 26 23 21 19 17 15 13 11 11 10 10 10 9 9 8 6 4 3 0
191 182 196 222 200 228 236 206 243 284 105 116 161 211 212 195 135 15 46 63 34 277 284 208 176 169 163 159 167 175 180 185 185 181 180 173 167 160 151 144 138 136 137 135 132 129 127 125 124 123 122 121 119 116 113 109 107 104 102 99 97 94 91 89 86 82 78 75 71 66 62 57 50 44 36 30 24 20 18 15 13 11 10 8 5 4 4 2 1 3 4 2 1 359 358 358 355
167 58 210 250 248 233 283 341 5 38 359 199 188 233 251 166 122 79 42 22 159 197 210 196 186 170 155 163 179 185 186 185 184 185 182 175 172 167 158 150 145 144 144 141 138 135 132 129 128 127 125 123 121 117 114 111 108 105 102 100 97 95 93 90 86 82 77 72 68 62 56 51 44 36 27 21 16 12 9 6 4 3 1 360 358 356 356 354 355 357 356 355 355 353 352 352 350
138 164 192 209 341 73 133 164 76 73 270 234 172 223 234 141 193 148 126 206 191 191 199 192 188 175 171 185 193 193 189 183 182 184 181 179 178 175 168 160 156 154 150 147 143 140 137 135 133 131 128 125 122 119 116 114 112 109 106 103 100 97 93 90 86 81 75 68 63 57 50 44 36 28 20 14 9 4 1 359 357 355 353 352 351 350 349 349 350 351 350 350 349 347 347 346 343
136 184 186 134 5 337 187 247 151 172 255 254 177 220 210 180 207 140 148 201 207 203 194 183 185 183 187 198 198 194 186 176 179 181 182 184 180 179 177 170 164 159 153 151 148 144 142 139 137 134 131 128 126 123 121 120 117 114 110 107 103 98 94 90 86 79 72 66 60 54 47 39 30 22 15 9 3 359 355 354 352 351 350 349 348 347 346 346 347 346 346 346 344 342 342 340 337
70 197 146 106 215 199 158 233 244 210 252 269 190 211 218 205 195 157 184 205 203 196 184 183 191 191 194 200 197 193 182 172 179 184 186 185 183 184 181 175 170 164 157 154 152 149 147 144 141 138 135 133 131 129 127 125 122 118 115 113 107 101 97 92 87 82 75 70 61 51 43 33 23 16 9 3 359 355 353 352 351 350 349 348 347 346 345 345 345 345 343 341 339 338 337 336 334
38 127 143 60 268 216 164 184 231 226 252 277 230 205 212 208 190 178 192 201 191 182 184 194 197 194 195 196 194 192 184 179 183 185 186 185 186 188 183 178 172 167 163 159 157 155 153 149 145 143 141 139 138 137 135 132 129 124 121 119 115 111 109 103 99 94 81 71 58 46 35 24 15 10 4 359 355 352 350 349 348 347 346 345 343 342 342 342 342 341 339 336 335 335 333 331 329
159 175 172 174 170 7 253 202 107 256 251 254 267 270 207 167 175 187 188 196 186 181 187 195 193 195 197 196 194 189 178 177 183 184 183 184 187 188 182 177 174 172 169 166 164 162 159 156 151 148 147 146 146 145 142 139 136 134 132 132 133 133 128 124 120 104 81 65 49 35 26 17 9 4 359 356 353 350 348 347 345 344 342 341 340 339 338 338 338 337 335 333 332 332 329 325 322
177 184 180 182 171 157 210 218 160 292 268 246 267 283 243 116 33 347 20 359 228 194 190 188 191 198 199 197 193 183 172 178 185 183 181 183 186 185 180 178 177 177 175 174 171 168 166 162 158 156 154 153 153 151 149 148 147 148 151 152 152 151 144 138 123 94 67 49 34 23 16 10 3 359 356 353 350 348 346 345 344 342 341 339 338 338 337 337 336 335 333 331 330 329 326 323 320